吉利星座2组08星 (GEESAT-2 08)

导读

GEESAT 2-08是中国吉利旗下GEESATCOM低轨通信星座组网卫星,于北京时间2024年2月2日成功发射入轨,是吉利推进商业航天布局、完善“天地一体化”智能出行生态的重要组成部分。它将助力实现全球卫星通信网络覆盖,支持汽车自动驾驶、智能网联设备以及消费电子直连卫星等应用场景,为全球用户提供稳定可靠的卫星通信服务,推动商业航天产业发展与卫星互联网落地应用。

Basic Information
目录编号:
58912
目录名称:
GEESAT 2-08
国际标识:
2024-023H
轨道中心:
EARTH
卫星名称:
吉利星座2组08星
卫星全名:
吉利星座2组08星 (GEESAT-2 08)
卫星状态:
在轨 (已飞行907 天)
发射日期:
2024-02-02 UTC
国别 :
中国 (CN)
星等 :
--
Orbit Information
数据来源 国际轨道数据 AOE轨道数据
星历时间 2026-07-28T12:47:07+0800
10小时前
查看轨道信息
2026-07-24T23:00:00+0800
3天前
查看轨道信息
半长轴 6996.816km 6996.872km
偏心率 0.0003549 0.0003496
轨道倾角 49.988° 49.987°
近地点辐角 145.568° 133.108°
升交点赤经 163.236° 179.797°
平近点角 214.549° 205.595°
近地点 616.195km 616.288km
远地点 621.163km 621.182km
周期 97.076分钟 97.077分钟
每日圈数 14.833789 14.833611
Detailed Information
平衡模式:
三轴稳定
覆盖范围:
全球
运营商:
时空道宇科技有限公司
运营商所在国:
中国
制造商(研发单位):
时空道宇科技有限公司
制造商所在国:
中国
使用方式:
暂无
Satellite Introduction
吉利星座(GeeSAT)也称“吉利未来出行星座”,由吉利旗下时空道宇自主研发,布局硬核科技生态,赋能智慧出行、无人系统、智慧城市等领域,并将全面提升吉利控股旗下极氪、领克、远程新能源商用车等品牌的用户智能出行体验。通过“吉利未来出行星座”建设,吉利控股集团将构建天地一体化高精时空信息系统。该卫星仍在工作。
2D Orbit Map
3D Orbit Map
Orbit Altitude Analysis Chart
Orbit Inclination Analysis Chart
Orbit Comprehensive Analysis Chart
View Comprehensive Chart